Tracking 30995 objects as of 6-Jul-2025
HD Live streaming from Space Station
objects crossing your sky now

THORAD AGENA D DEB

Track THORAD AGENA D DEB now!
10-day predictions


NORAD ID: 14467
Int'l Code: 1970-025NT
Perigee: 1,025.6 km
Apogee: 1,028.8 km
Inclination: 100.1 °
Period: 105.5 minutes
Semi major axis: 7398 km
RCS: 0.007 m2 (small)
Launch date: April 8, 1970
Source: United States (US)
Launch site: AIR FORCE WESTERN TEST RANGE (AFWTR)

Note: This is SATELLITE DEBRIS
Your satellite tracking list
Your tracking list is empty




NASA's NSSDC Master Catalog

Two Line Element Set (TLE):
1 14467U 70025NT  25184.43403072  .00000245  00000-0  36677-3 0  9992
2 14467 100.0823  48.5870 0002203 124.5034   0.4269 13.64307709114238
Source of the keplerian elements: AFSPC